Hourly Data Report for October 04, 2017

All times are specified in Local Standard Time (LST). Add 1 hour to adjust for Daylight Saving Time where and when it is observed.

HIGH LEVEL
ALBERTA

58°37'18.000" N
117°09'53.000" W
338.00 m
3073140
71066
YOJ

Download Data

Hourly Data (October 2017)
Hourly Data Report for October 4, 2017
Temp Definition
°C
Dew Point Temp Definition
°C
Rel Hum Definition
%
Wind Dir Definition
10's deg

Wind Spd Definition
km/h
Visibility Definition
km
Stn Press Definition
kPa
Hmdx Definition


Wind Chill Definition


Weather Definition


TIME
00:00 Legend Double Dagger 2.2 -2.0 74 LegendMM 4 16.1 98.04     LegendNANA
01:00 Legend Double Dagger 1.7 -1.9 77 LegendMM 4 16.1 98.09     LegendNANA
02:00 Legend Double Dagger 0.4 -2.4 82 33 9 16.1 98.13     LegendNANA
03:00 Legend Double Dagger 1.2 -1.3 84   0 16.1 98.15     LegendNANA
04:00 Legend Double Dagger -1.2 -2.7 90 16 4 16.1 98.19   -3 LegendNANA
05:00 Legend Double Dagger -2.2 -3.0 94 16 4 16.1 98.18   -4 LegendNANA
06:00 Legend Double Dagger -2.2 -3.8 89 13 4 16.1 98.14   -4 LegendNANA
07:00 Legend Double Dagger -3.1 -4.1 93 13 4 16.1 98.12   -5 LegendNANA
08:00 Legend Double Dagger 0.1 -1.7 88 17 5 16.1 98.18     LegendNANA
09:00 Legend Double Dagger 2.7 -0.4 80 15 13 16.1 98.15     LegendNANA
10:00 Legend Double Dagger 4.6 0.1 73 16 11 16.1 98.15     LegendNANA
11:00 Legend Double Dagger 6.2 0.4 66 17 8 16.1 98.08     LegendNANA
12:00 Legend Double Dagger 7.8 0.1 58 16 9 16.1 98.02     LegendNANA
13:00 Legend Double Dagger 8.9 0.5 55 14 11 16.1 97.95     LegendNANA
14:00 Legend Double Dagger 11.2 1.1 50 14 8 16.1 97.90     LegendNANA
15:00 Legend Double Dagger 12.5 1.6 47 14 9 16.1 97.83     LegendNANA
16:00 Legend Double Dagger 12.9 1.9 47 13 13 16.1 97.79     LegendNANA
17:00 Legend Double Dagger 12.8 1.8 47 15 13 16.1 97.72     LegendNANA
18:00 Legend Double Dagger 11.8 1.8 50 13 9 16.1 97.69     LegendNANA
19:00 Legend Double Dagger 10.6 1.7 54 13 8 16.1 97.66     LegendNANA
20:00 Legend Double Dagger 8.9 1.4 59 16 8 16.1 97.61     LegendNANA
21:00 Legend Double Dagger 6.6 1.3 69   0 16.1 97.57     LegendNANA
22:00 Legend Double Dagger 4.9 0.9 75   0 16.1 97.53     LegendNANA
23:00 Legend Double Dagger 2.9 -0.2 80   0 16.1 97.50     LegendNANA

Notes on Data Quality.

Legend

  • E = Estimated
  • M = Missing
  • NA = Not Available
  • ‡ = Partner data that is not subject to review by the National Climate Archives
Date modified: